"2014-07-23 00:01:00",966703,1.666,327.6331,9.174777,0.3500628,2.12,0,1.145333,313.9951,8.706351,0.302608,1.83,0,0.9632666,312.6,19.79,79.08,19.79,17.81,2.192,0.107,0,21.2,13.59,2.325,102.1398,7.931,7.932,7.931,100
"2014-07-23 00:02:00",966704,1.935333,347.5908,9.794813,0.4497684,2.65,0,1.337333,316.3817,12.87659,0.2533368,2.03,0,0.9651333,299.3,19.7,79.62,19.66,17.8,2.321,0.246,0,21.18,13.59,2.638,102.1395,7.93,7.932,7.93,100
"2014-07-23 00:03:00",966705,1.696,335.8093,26.32812,0.3635712,2.64,0,1.486,313.0759,19.01134,0.1546523,1.76,0,0.9003333,284.2,19.59,80.1,19.55,17.74,2.263,0.257,0,21.18,13.59,2.763,102.1363,7.932,7.932,7.93,100
"2014-07-23 00:04:00",966706,2.367333,333.8267,18.05258,0.2622331,2.82,0,1.516666,310.8831,8.175775,0.2655728,2.04,0,0.9664667,308.5,19.5,80.5,19.42,17.68,2.663,0.21,0,21.18,13.59,2.95,102.1371,7.932,7.932,7.93,100
"2014-07-23 00:05:00",966707,2.027333,320.9336,4.433288,0.1969252,2.29,0,0.9493333,308.6108,9.270923,0.2701226,1.66,0,0.9656667,330.5,19.4,81,19.33,17.65,2.571,0.168,0,21.16,13.59,2.95,102.1392,7.931,7.933,7.931,100
"2014-07-23 00:06:00",966708,2.262,322.3096,6.261795,0.3094985,2.9,0,1.658667,307.6125,6.123133,0.2662797,2.12,0,0.9653333,328.6,19.33,81.6,19.21,17.61,2.617,0.158,0,21.15,13.59,2.95,102.1374,7.932,7.933,7.931,100
"2014-07-23 00:07:00",966709,2.454,327.1665,8.729698,0.2258258,2.86,0,1.525333,308.6641,3.787511,0.1864713,1.95,0,0.9646666,315.4,19.19,82.4,19.06,17.57,2.771,0.079,0,21.14,13.59,2.95,102.1405,7.932,7.932,7.931,100
"2014-07-23 00:08:00",966710,2.177333,322.64,7.023515,0.2856213,2.81,0,1.220667,308.0025,8.013599,0.2547016,1.75,0,0.8969333,346.6,19.09,82.9,18.96,17.52,2.675,0.215,0,21.12,13.59,3.2,102.1395,7.931,7.933,7.931,100
"2014-07-23 00:09:00",966711,2.342667,322.0597,10.07651,0.232994,2.91,0,1.344,314.1259,12.41081,0.2809697,1.96,0,0.8330666,300.8,19.05,83.3,18.93,17.52,2.463,0.202,0,21.12,13.59,3.013,102.138,7.931,7.932,7.931,100
"2014-07-23 00:10:00",966712,2.038,323.9687,6.541612,0.257506,2.39,0,1.485333,309.7433,6.520569,0.240468,1.93,0,0.9638666,315.9,19.03,83.5,18.94,17.52,2.429,0.104,0,21.1,13.58,2.638,102.1366,7.932,7.933,7.931,100
"2014-07-23 00:11:00",966713,2.208,322.5179,8.632107,0.2828709,2.85,0,1.292,307.834,9.461281,0.4101252,2.09,0,0.9671333,301.5,19,83.6,18.9,17.51,2.15,0.486,0,21.09,13.59,2.888,102.1348,7.931,7.933,7.931,100
"2014-07-23 00:12:00",966714,2.41,317.3962,4.600092,0.1437127,2.68,0,1.528,304.1277,6.287345,0.236113,1.88,0,0.9644666,302.3,18.99,83.6,18.92,17.53,2.696,0.136,0,21.07,13.59,2.95,102.129,7.933,7.933,7.931,100
"2014-07-23 00:13:00",966715,2.294,321.3319,3.7337,0.2409371,2.53,0,1.574667,307.6702,5.295542,0.183007,1.79,0,0.9639999,303.6,18.96,83.8,18.85,17.5,2.525,0.135,0,21.07,13.59,2.7,102.1315,7.932,7.933,7.931,100
"2014-07-23 00:14:00",966716,2.398,325.9399,8.753326,0.284914,2.97,0,1.455333,311.8008,3.709071,0.2025131,2.01,0,0.8353999,287.2,18.91,84.2,18.81,17.5,2.425,0.144,0,21.05,13.59,2.638,102.1296,7.933,7.933,7.931,100
"2014-07-23 00:15:00",966717,2.12,333.1049,9.950151,0.3235017,2.75,0,1.276667,317.5982,4.798452,0.1777139,1.59,0,0.8356667,308.5,18.86,84.6,18.79,17.49,2.538,0.262,0,21.04,13.59,3.138,102.1282,7.932,7.933,7.932,100
"2014-07-23 00:16:00",966718,2.330667,322.6675,4.330187,0.2664449,2.58,0,1.384,318.2058,6.227493,0.4642097,2.23,0,0.9658,328.4,18.84,84.6,18.8,17.5,2.642,0.301,0,21.02,13.59,3.013,102.1276,7.932,7.933,7.932,100
"2014-07-23 00:17:00",966719,2.661334,325.7274,5.78869,0.2074887,3.06,0,1.535333,316.1345,3.738559,0.2022166,1.84,0,0.9644,301.1,18.81,84.5,18.75,17.47,3.108,0.155,0,21.01,13.59,3.513,102.1263,7.932,7.933,7.932,100
"2014-07-23 00:18:00",966720,2.455333,331.0387,7.985863,0.2983257,3.16,0,1.644,318.2755,6.832917,0.1983196,2.04,0,0.9647999,309.9,18.78,84.9,18.73,17.46,2.871,0.128,0,20.99,13.59,3.138,102.1284,7.934,7.934,7.932,100
"2014-07-23 00:19:00",966721,2.338667,332.7343,4.0395,0.2179561,2.72,0,1.708,319.937,4.309789,0.3831658,2.22,0,0.8359333,261.3,18.75,85,18.69,17.45,2.688,0.108,0,20.97,13.59,2.888,102.1293,7.933,7.933,7.932,100
"2014-07-23 00:20:00",966722,2.262,328.328,5.309653,0.183492,2.5,0,1.386667,327.7317,5.766475,0.1484438,1.68,0,0.969,272.8,18.71,85.1,18.66,17.44,2.808,0.124,0,20.96,13.58,3.075,102.1288,7.934,7.934,7.932,100
"2014-07-23 00:21:00",966723,2.356667,324.9846,6.001994,0.1557205,2.62,0,1.224,327.6022,6.7892,0.2346288,1.64,0,0.9695333,272.7,18.7,85.5,18.67,17.45,3.038,0.204,0,20.94,13.59,3.45,102.1285,7.934,7.934,7.932,100
"2014-07-23 00:22:00",966724,2.450667,327.1891,5.094824,0.1190779,2.64,0,1.507333,316.9969,8.126688,0.2874361,2.12,0,0.9685333,288.6,18.7,85.4,18.67,17.45,2.883,0.205,0,20.92,13.59,3.138,102.1296,7.933,7.934,7.932,100
"2014-07-23 00:23:00",966725,2.285333,330.156,7.940681,0.1658058,2.63,0,1.609333,326.4934,9.846865,0.2581334,2.05,0,0.9684666,261,18.66,85.6,18.64,17.46,2.938,0.176,0,20.91,13.59,3.2,102.1294,7.932,7.934,7.932,100
"2014-07-23 00:24:00",966726,2.224667,327.0658,2.515066,0.1017098,2.35,0,1.269333,320.3254,5.529856,0.2381167,1.59,0,0.8389333,244.1,18.66,85.5,18.66,17.46,2.783,0.09,0,20.89,13.58,2.95,102.1303,7.933,7.934,7.932,100
"2014-07-23 00:25:00",966727,2.265334,330.5963,4.331094,0.1424952,2.46,0,1.404667,316.7994,5.600211,0.1851078,1.8,0,0.7073333,231.3,18.66,85.6,18.66,17.45,2.667,0.114,0,20.87,13.59,2.825,102.1297,7.934,7.934,7.933,100
"2014-07-23 00:26:00",966728,1.957333,335.4654,4.976099,0.2131499,2.31,0,1.195333,325.8322,9.509876,0.1520029,1.44,0,0.9695333,285.4,18.66,85.7,18.64,17.45,2.421,0.099,0,20.85,13.59,2.638,102.1294,7.933,7.934,7.932,100
"2014-07-23 00:27:00",966729,1.813333,329.268,4.849642,0.2262938,2.25,0,1.230667,318.4499,7.690561,0.1920578,1.68,0,0.8386,243.9,18.65,85.7,18.63,17.46,2.521,0.129,0,20.83,13.59,2.7,102.1259,7.933,7.934,7.932,100
"2014-07-23 00:28:00",966730,2.254667,333.8532,5.810058,0.1357874,2.56,0,1.298,326.3345,9.921052,0.1934666,1.58,0,0.7091333,209.3,18.62,85.8,18.6,17.45,2.604,0.085,0,20.81,13.59,2.825,102.1246,7.934,7.934,7.932,100
"2014-07-23 00:29:00",966731,2.193333,332.3998,3.498233,0.09843213,2.35,0,1.07,323.332,6.637497,0.1165619,1.26,0,0.9062,257.9,18.61,85.8,18.59,17.43,2.638,0.15,0,20.8,13.59,3.013,102.1261,7.932,7.934,7.932,100
"2014-07-23 00:30:00",966732,2.144,340.2028,7.727072,0.1614022,2.45,0,1.123333,326.0795,8.019349,0.2519436,1.47,0,0.9724,269.3,18.6,85.8,18.58,17.42,2.55,0.176,0,20.78,13.59,3.013,102.1249,7.933,7.934,7.932,100
"2014-07-23 00:31:00",966733,2.399334,343.1032,7.837578,0.2171164,2.69,0,1.294,330.9872,7.075488,0.2658019,1.79,0,0.7774,235.8,18.61,85.7,18.59,17.43,2.533,0.142,0,20.76,13.58,2.763,102.1228,7.934,7.934,7.932,100
"2014-07-23 00:32:00",966734,2.074,349.4481,9.729272,0.4366967,2.94,0,1.186,329.5438,10.88475,0.1823843,1.58,0,0.8420666,233.8,18.61,85.7,18.62,17.44,2.333,0.251,0,20.74,13.59,2.763,102.1218,7.935,7.935,7.933,100
"2014-07-23 00:33:00",966735,2.269333,341.601,3.591716,0.1975674,2.65,0,1.448,337.3334,3.92631,0.1806359,1.86,0,0.9732,265.9,18.67,85.6,18.67,17.47,2.508,0.138,0,20.73,13.59,2.763,102.1222,7.934,7.935,7.933,100
"2014-07-23 00:34:00",966736,2.003333,345.1244,6.374002,0.1799506,2.28,0,1.100667,337.7999,3.102565,0.149598,1.39,0,0.9699333,275.7,18.69,85.2,18.69,17.45,2.475,0.153,0,20.7,13.59,2.763,102.121,7.934,7.935,7.933,100
"2014-07-23 00:35:00",966737,2.314667,335.8686,4.467886,0.1466909,2.54,0,1.129333,322.289,11.09339,0.1377179,1.36,0,0.7765333,226.6,18.7,85.1,18.73,17.47,2.571,0.205,0,20.69,13.58,2.95,102.121,7.934,7.935,7.933,100
"2014-07-23 00:36:00",966738,2.402667,340.4887,8.586791,0.2556942,2.81,0,1.552667,322.0005,3.203409,0.1692913,1.78,0,0.6465333,189.3,18.69,85.2,18.7,17.45,2.6,0.154,0,20.67,13.59,2.825,102.1199,7.935,7.935,7.933,100
"2014-07-23 00:37:00",966739,2.251333,340.0093,5.446252,0.1382687,2.55,0,1.494,321.0667,3.659077,0.1245686,1.76,0,0.9716666,269.8,18.65,85.4,18.67,17.43,2.504,0.153,0,20.65,13.59,2.825,102.1208,7.934,7.935,7.934,100
"2014-07-23 00:38:00",966740,2.137333,340.864,4.813533,0.333376,2.6,0,1.224667,330.5456,10.23662,0.2685732,1.7,0,0.971,265.7,18.63,85.5,18.64,17.41,2.771,0.133,0,20.64,13.59,2.95,102.1207,7.935,7.935,7.933,100
"2014-07-23 00:39:00",966741,2.494667,342.8625,6.019226,0.1422142,2.76,0,1.709333,333.2569,11.20058,0.2175765,2.03,0,0.9698666,249.3,18.65,85.4,18.7,17.45,2.217,0.238,0,20.62,13.59,2.638,102.1204,7.935,7.935,7.934,100
"2014-07-23 00:40:00",966742,2.112667,337.6707,6.017045,0.2289242,2.71,0,1.374667,323.2063,6.487959,0.1880024,1.71,0,0.9696667,256.9,18.73,84.9,18.8,17.49,2.292,0.253,0,20.6,13.59,2.638,102.1206,7.936,7.936,7.935,100
"2014-07-23 00:41:00",966743,1.842,351.1862,7.987504,0.1798592,2.13,0,1.233333,327.0264,9.537848,0.2782006,1.73,0,0.9702666,257.6,18.74,85,18.81,17.5,2.154,0.154,0,20.58,13.59,2.513,102.1201,7.934,7.936,7.933,100
"2014-07-23 00:42:00",966744,1.846667,348.6445,9.400528,0.2089551,2.2,0,1.017333,340.6711,20.49543,0.2861577,1.76,0,0.9716666,257.8,18.81,84.8,18.89,17.55,1.992,0.185,0,20.57,13.59,2.325,102.1212,7.936,7.936,7.936,100
"2014-07-23 00:43:00",966745,1.517333,348.4278,15.19798,0.5330474,2.18,0,1.048,356.0107,8.741082,0.1965435,1.38,0,0.9703333,246,18.82,84.5,18.9,17.54,1.796,0.249,0,20.55,13.59,2.45,102.1196,7.936,7.937,7.935,100
"2014-07-23 00:44:00",966746,1.858,339.0729,6.254113,0.1800444,2.13,0,1.039333,325.7883,7.796033,0.1986443,1.38,0,0.9694,248.7,18.84,84.2,18.96,17.56,1.842,0.18,0,20.53,13.59,2.263,102.1189,7.936,7.936,7.935,100
"2014-07-23 00:45:00",966747,1.772,339.4923,9.722213,0.1493184,2.02,0,1.066667,342.6667,5.222574,0.1286166,1.31,0,0.9693334,241.7,18.93,83.8,19.06,17.56,2.192,0.175,0,20.52,13.59,2.638,102.1179,7.936,7.936,7.934,100
"2014-07-23 00:46:00",966748,1.838,347.4948,11.97188,0.1727889,2.11,0,0.8786667,335.2755,8.277889,0.133859,1.16,0,0.9710667,245.3,18.94,83.6,19.08,17.57,2.213,0.13,0,20.5,13.58,2.45,102.1191,7.937,7.937,7.935,100
"2014-07-23 00:47:00",966749,1.885333,332.3126,7.836489,0.2087381,2.42,0,1.148,319.2856,11.62102,0.1248038,1.31,0,0.9709333,264.9,18.9,84,19.02,17.55,2.037,0.099,0,20.48,13.59,2.2,102.1171,7.936,7.936,7.935,100
"2014-07-23 00:48:00",966750,1.694,340.5944,7.980563,0.1664452,1.9,0,1.159333,315.3971,5.698575,0.2640825,1.64,0,0.9725333,274.6,18.83,84.1,18.9,17.49,2.275,0.146,0,20.48,13.59,2.575,102.118,7.936,7.936,7.935,100
"2014-07-23 00:49:00",966751,1.688,336.5291,8.203934,0.1682141,2.05,0,0.8953333,323.6669,8.006445,0.1016443,1.09,0,0.9754667,277.8,18.73,84.6,18.78,17.43,2.238,0.094,0,20.46,13.59,2.388,102.1196,7.936,7.936,7.935,100
"2014-07-23 00:50:00",966752,1.705333,338.3108,8.064436,0.1630896,2.02,0,0.8706667,323.1236,7.311873,0.1153237,1.05,0,0.9765333,270.9,18.67,84.8,18.69,17.43,2.267,0.301,0,20.44,13.59,2.888,102.121,7.936,7.936,7.935,100
"2014-07-23 00:51:00",966753,1.877333,352.5264,9.501006,0.264032,2.41,0,0.8753334,326.5353,10.46582,0.1822404,1.16,0,0.9777333,257.9,18.62,85,18.63,17.42,2.421,0.269,0,20.42,13.59,2.888,102.1214,7.935,7.936,7.935,100
"2014-07-23 00:52:00",966754,1.996667,348.2145,8.163355,0.4099864,2.6,0,1.409333,352.0428,13.10485,0.3787957,2.29,0,0.906,247,18.62,85.2,18.64,17.41,2.125,0.332,0,20.41,13.58,2.7,102.1207,7.936,7.936,7.935,100
"2014-07-23 00:53:00",966755,1.951333,336.8391,11.78424,0.2954289,2.44,0,1.551333,322.606,14.61676,0.1915504,1.89,0,0.9698666,256.5,18.67,84.9,18.69,17.43,2.054,0.201,0,20.4,13.59,2.325,102.1204,7.936,7.937,7.935,100
"2014-07-23 00:54:00",966756,1.772,327.4584,7.681695,0.1808572,2.07,0,1.199333,315.0682,3.923183,0.2013112,1.73,0,0.9733333,259.9,18.68,85,18.72,17.43,2.258,0.194,0,20.37,13.58,2.513,102.1214,7.936,7.936,7.935,100
"2014-07-23 00:55:00",966757,1.948666,324.1278,4.57064,0.132809,2.25,0,1.14,308.5974,4.422903,0.1359412,1.37,0,0.9758666,269.8,18.66,85,18.7,17.41,2.329,0.219,0,20.37,13.58,2.7,102.1195,7.936,7.937,7.935,100
"2014-07-23 00:56:00",966758,1.82,335.0648,5.443176,0.1083205,1.98,0,1.119333,311.6703,8.208755,0.1686205,1.4,0,0.9770666,264.1,18.6,85.1,18.61,17.36,2.333,0.104,0,20.35,13.59,2.513,102.1205,7.936,7.937,7.935,100
"2014-07-23 00:57:00",966759,1.534,320.396,9.575693,0.1402759,1.88,0,0.7113333,322.1381,10.82737,0.2303003,1.24,0,0.9756666,275.1,18.54,85.6,18.56,17.34,2.429,0.184,0,20.33,13.59,2.763,102.1215,7.937,7.937,7.935,100
"2014-07-23 00:58:00",966760,1.886,327.1395,11.28663,0.2255896,2.2,0,1.130667,315.2227,16.30764,0.2005481,1.53,0,0.9756,293.1,18.57,85.5,18.6,17.37,2.358,0.285,0,20.31,13.59,2.825,102.1216,7.936,7.937,7.935,100
"2014-07-23 00:59:00",966761,1.674667,324.9987,3.81143,0.1539206,1.91,0,1.178,322.1347,6.124969,0.2275727,1.56,0,0.9755333,292.9,18.56,85.2,18.61,17.38,2.513,0.168,0,20.31,13.58,2.763,102.1234,7.936,7.937,7.935,100
"2014-07-23 01:00:00",966762,1.881333,322.3334,2.440179,0.07906678,2.01,0,1.280666,316.5272,5.592729,0.1766528,1.57,0,0.9092667,291,18.56,85.4,18.59,17.38,2.663,0.104,0,20.29,13.59,2.825,102.1233,7.936,7.937,7.935,100
"2014-07-23 01:01:00",966763,2.105333,327.4656,2.654111,0.1048088,2.32,0,1.420667,316.4031,4.482313,0.2035507,1.68,0,0.9067333,299.7,18.51,85.7,18.52,17.34,2.529,0.138,0,20.27,13.59,2.763,102.1213,7.936,7.937,7.935,100
"2014-07-23 01:02:00",966764,2.044667,331.4663,3.029957,0.1535738,2.38,0,1.42,314.466,4.528556,0.1680476,1.72,0,0.9732,301.1,18.46,85.8,18.47,17.3,2.379,0.156,0,20.26,13.59,2.575,102.1244,7.936,7.936,7.935,100
"2014-07-23 01:03:00",966765,2.151333,328.9997,3.010808,0.1288858,2.35,0,1.419333,314.4683,4.079675,0.07433857,1.54,0,0.9769333,272.3,18.44,86.1,18.45,17.29,2.425,0.131,0,20.24,13.59,2.575,102.1228,7.936,7.936,7.935,100
"2014-07-23 01:04:00",966766,2.108,329.2679,3.233995,0.1451528,2.36,0,1.321333,311.5318,4.046446,0.1337593,1.5,0,0.9765999,272.9,18.4,86.3,18.4,17.28,2.267,0.108,0,20.23,13.59,2.45,102.1235,7.936,7.937,7.935,100
"2014-07-23 01:05:00",966767,2.093333,323.3999,1.743706,0.1386923,2.26,0,1.026,305.0686,5.695962,0.1133608,1.23,0,0.9764,280.7,18.38,86.5,18.39,17.28,2.317,0.094,0,20.21,13.58,2.45,102.1229,7.936,7.936,7.936,100
"2014-07-23 01:06:00",966768,1.774667,324.3358,4.640263,0.2071027,2.11,0,1.004667,303.1989,4.591495,0.1345544,1.21,0,0.9770666,273.8,18.38,86.7,18.36,17.28,2.354,0.055,0,20.2,13.59,2.45,102.1216,7.936,7.937,7.935,100
"2014-07-23 01:07:00",966769,1.517333,322.3332,2.054535,0.1186854,1.78,0,0.7133333,300.4206,8.547267,0.1406019,1.04,0,0.9767333,279.3,18.37,86.6,18.35,17.28,2.2,0.099,0,20.18,13.58,2.388,102.1237,7.936,7.936,7.935,100
"2014-07-23 01:08:00",966770,1.212667,321.7991,5.242158,0.1116224,1.38,0,0.674,305.978,8.271098,0.1042305,0.85,0,0.9768,281.8,18.36,86.8,18.33,17.28,1.933,0.108,0,20.16,13.59,2.138,102.1225,7.936,7.936,7.935,100
"2014-07-23 01:09:00",966771,1.290667,308.7316,4.233047,0.05309947,1.42,0,0.7279999,296.2878,7.643027,0.05946427,0.82,0,0.9765999,285.9,18.35,86.7,18.33,17.28,2.017,0.113,0,20.15,13.58,2.2,102.1205,7.937,7.937,7.935,100
"2014-07-23 01:10:00",966772,0.9666666,316.934,4.418501,0.09944288,1.12,0,0.4173334,285.1006,21.68465,0.2737265,0.87,0,0.9734666,271.6,18.36,86.6,18.32,17.28,1.9,0.097,0,20.13,13.59,2.075,102.1204,7.936,7.937,7.936,100
"2014-07-23 01:11:00",966773,1.081333,315.1284,6.508635,0.2538206,1.59,0,0.3293333,317.9695,27.81975,0.2082456,0.74,0,0.9755333,267.9,18.37,86.4,18.32,17.28,1.7,0.105,0,20.12,13.59,1.95,102.1211,7.936,7.937,7.935,100
"2014-07-23 01:12:00",966774,1.488667,318.6683,11.21509,0.1268525,1.72,0,0.6933333,284.0562,13.94377,0.1530867,1.06,0,0.9741333,289.5,18.38,86.4,18.34,17.29,1.904,0.21,0,20.1,13.58,2.325,102.1178,7.936,7.936,7.936,100
"2014-07-23 01:13:00",966775,1.538,318.3742,9.280355,0.1570223,1.89,0,0.3873333,324.0753,24.22565,0.1421955,0.68,0,0.9076666,278.9,18.38,86.5,18.36,17.28,1.788,0.184,0,20.09,13.59,2.075,102.1195,7.936,7.937,7.936,100
"2014-07-23 01:14:00",966776,1.612667,317.0677,4.780672,0.07094286,1.76,0,0.8319999,293.7448,12.48206,0.1769821,1.22,0,0.9726666,300.6,18.37,86.5,18.36,17.28,1.871,0.124,0,20.08,13.59,2.075,102.1188,7.935,7.937,7.935,100
"2014-07-23 01:15:00",966777,1.566667,328.1981,5.021779,0.09097006,1.77,0,0.8573332,307.2099,11.30796,0.122391,1.06,0,0.9748,267,18.34,86.6,18.3,17.25,1.863,0.099,0,20.05,13.58,2.013,102.1205,7.937,7.937,7.936,100
"2014-07-23 01:16:00",966778,1.51,340.0681,4.890478,0.1567163,1.85,0,0.7246667,318.4954,12.89185,0.1117656,0.9,0,0.9751333,279.9,18.29,86.7,18.26,17.22,1.825,0.158,0,20.05,13.58,2.075,102.1218,7.937,7.937,7.936,100
"2014-07-23 01:17:00",966779,1.544,342.0733,6.503289,0.1236015,1.74,0,0.9813333,314.3352,3.417959,0.09701317,1.14,0,0.9763333,269.9,18.27,86.9,18.25,17.22,1.813,0.183,0,20.03,13.58,2.2,102.1225,7.936,7.937,7.936,100
"2014-07-23 01:18:00",966780,1.332,356.7328,2.719213,0.1283848,1.53,0,0.744,330.5453,10.25151,0.1731204,1.02,0,0.9737333,274.8,18.25,87,18.21,17.21,2.083,0.344,0,20.02,13.59,2.638,102.1229,7.936,7.937,7.936,100
"2014-07-23 01:19:00",966781,1.334,350.5354,4.5281,0.191374,1.92,0,0.558,341.1174,7.238379,0.03487119,0.62,0,0.9715999,258.3,18.23,87.1,18.16,17.18,1.75,0.18,0,20,13.58,2.138,102.1193,7.936,7.937,7.935,100
"2014-07-23 01:20:00",966782,1.994667,353.3162,15.31264,0.2753632,2.42,0,0.53,331.2225,10.72041,0.05501515,0.63,0,0.9712666,259.3,18.22,86.9,18.18,17.2,1.763,0.072,0,19.99,13.59,1.95,102.1173,7.936,7.937,7.935,100
"2014-07-23 01:21:00",966783,1.676667,1.723661,14.41749,0.5039401,2.99,0,0.5086666,332.3485,11.55299,0.08678453,0.67,0,0.9738666,261.3,18.26,87,18.26,17.26,1.442,0.266,0,19.97,13.59,2.075,102.1139,7.937,7.937,7.935,100
"2014-07-23 01:22:00",966784,1.396,353.4591,8.522166,0.1834775,1.75,0,0.6366667,316.501,14.79307,0.1711789,0.93,0,0.9746667,269.1,18.32,87,18.33,17.3,1.2,0.279,0,19.97,13.58,1.763,102.1133,7.937,7.937,7.936,100
"2014-07-23 01:23:00",966785,1.202667,359.8884,8.402015,0.1445668,1.44,0,0.468,320.673,16.45977,0.1749362,0.85,0,0.9743333,257.5,18.34,87,18.31,17.3,1.492,0.273,0,19.94,13.59,1.888,102.1142,7.937,7.937,7.936,100
"2014-07-23 01:24:00",966786,1.397333,354.3217,8.081998,0.08176931,1.5,0,0.6653334,318.6018,11.87822,0.1240358,0.85,0,0.9773999,255,18.35,86.9,18.28,17.3,1.546,0.169,0,19.94,13.59,1.763,102.1135,7.936,7.937,7.936,100
"2014-07-23 01:25:00",966787,1.634,347.8577,5.520121,0.1058804,1.84,0,0.8866667,316.4683,4.976278,0.127052,1.14,0,0.9779999,266.2,18.35,86.4,18.28,17.29,1.692,0.178,0,19.92,13.59,2.075,102.1134,7.937,7.938,7.936,100
"2014-07-23 01:26:00",966788,1.938,340.6689,5.734386,0.1367333,2.23,0,1.079333,315.7949,6.022601,0.1421017,1.37,0,0.9782667,259.8,18.34,86.4,18.33,17.28,2.088,0.141,0,19.91,13.59,2.263,102.1156,7.936,7.937,7.936,100
"2014-07-23 01:27:00",966789,2.145333,336.7322,5.891254,0.1891338,2.36,0,1.331333,314.8701,6.370716,0.2340902,1.62,0,0.9792666,255.2,18.35,86.4,18.37,17.28,2.304,0.236,0,19.89,13.59,2.763,102.1165,7.937,7.938,7.936,100
"2014-07-23 01:28:00",966790,2.296,333.2675,4.710829,0.1546092,2.57,0,1.466,318.4063,5.076771,0.1367626,1.6,0,0.9776,252.9,18.35,86.4,18.41,17.29,2.646,0.151,0,19.89,13.59,2.825,102.1162,7.936,7.937,7.936,100
"2014-07-23 01:29:00",966791,2.165333,326.1985,3.543205,0.1201592,2.35,0,1.484,310.4121,6.753527,0.2665783,2.07,0,0.9764,254.5,18.37,86.3,18.43,17.3,2.258,0.095,0,19.89,13.58,2.45,102.1162,7.937,7.938,7.935,100
"2014-07-23 01:30:00",966792,1.984,319.2762,5.762746,0.2694389,2.41,0,1.293333,295.5916,7.79877,0.2196259,1.71,0,0.9788666,269.3,18.39,86.6,18.47,17.34,2.771,0.223,0,19.86,13.59,3.263,102.1169,7.936,7.938,7.936,100
"2014-07-23 01:31:00",966793,2.576,312.3336,3.299405,0.2498212,2.99,0,1.536667,300.5985,5.198318,0.2590667,2.06,0,0.9798666,267.7,18.38,86.8,18.42,17.35,3.183,0.17,0,19.86,13.59,3.575,102.113,7.937,7.938,7.936,100
"2014-07-23 01:32:00",966794,2.919333,317.6668,2.210797,0.1618421,3.23,0,1.71,306.6721,6.308509,0.27313,2.16,0,0.9797333,271.3,18.34,87.1,18.35,17.31,2.846,0.298,0,19.84,13.59,3.388,102.1126,7.938,7.938,7.936,100
"2014-07-23 01:33:00",966795,3.02,311.1332,2.917656,0.172974,3.31,0,1.695333,304.667,7.008295,0.2834988,2.37,0,0.9783333,275.3,18.3,87.3,18.3,17.29,3.108,0.18,0,19.84,13.58,3.513,102.1079,7.938,7.938,7.936,100
"2014-07-23 01:34:00",966796,2.899333,314.6667,3.217885,0.2333086,3.31,0,1.451334,310.7538,9.105571,0.2678772,1.83,0,0.9787999,272.7,18.28,87.4,18.29,17.29,3.146,0.178,0,19.84,13.58,3.45,102.1084,7.936,7.938,7.936,100
"2014-07-23 01:35:00",966797,2.842666,313.7997,2.315103,0.1529038,3.08,0,1.562667,314.5332,5.655174,0.2370504,2.01,0,0.9798666,267.1,18.27,87.5,18.28,17.29,2.879,0.082,0,19.84,13.58,3.013,102.1059,7.938,7.939,7.936,100
"2014-07-23 01:36:00",966798,2.674667,313.2002,4.101544,0.1841328,2.89,0,1.664667,310.7325,3.837121,0.1593682,1.9,0,0.9809333,273,18.24,87.7,18.24,17.28,2.854,0.146,0,19.81,13.59,3.138,102.1058,7.938,7.939,7.936,100
"2014-07-23 01:37:00",966799,2.432,306.9328,3.086439,0.08878436,2.59,0,1.387333,299.077,7.946369,0.2048891,1.77,0,0.9791333,272,18.21,87.9,18.2,17.28,2.679,0.142,0,19.81,13.58,2.95,102.1007,7.937,7.938,7.936,100
"2014-07-23 01:38:00",966800,1.856,319.9332,3.064731,0.262445,2.45,0,1.014,321.1671,11.6203,0.2488051,1.67,0,0.9805333,269.9,18.19,88.1,18.17,17.27,2.563,0.188,0,19.8,13.59,3.075,102.1036,7.937,7.938,7.937,100
"2014-07-23 01:39:00",966801,2.049333,320.9339,5.469567,0.2085655,2.33,0,0.844,328.6708,7.894244,0.09714593,1.02,0,0.9809999,264.3,18.18,88.2,18.14,17.26,2.317,0.196,0,19.79,13.58,2.638,102.1055,7.938,7.938,7.936,100
"2014-07-23 01:40:00",966802,2.132,328.0008,4.350852,0.1891102,2.44,0,0.7593333,328.0582,11.53877,0.179832,1.07,0,0.9774666,272.4,18.17,88.4,18.12,17.26,2.417,0.131,0,19.78,13.58,2.638,102.1089,7.936,7.939,7.936,100
"2014-07-23 01:41:00",966803,2.202667,328.7334,4.341335,0.1290202,2.43,0,1.28,325.8634,5.186109,0.1284783,1.54,0,0.98,271.6,18.15,88.5,18.1,17.26,2.542,0.187,0,19.78,13.58,2.888,102.1125,7.938,7.938,7.937,100
"2014-07-23 01:42:00",966804,2.168667,342.5998,2.702585,0.2320019,2.71,0,1.146667,351.4615,7.21702,0.1941019,1.44,0,0.9796667,274.4,18.12,88.3,18.09,17.24,2.675,0.091,0,19.77,13.58,2.825,102.1181,7.938,7.938,7.937,100
"2014-07-23 01:43:00",966805,2.856666,350.4443,7.211515,0.2798968,3.3,0,1.644667,343.0663,4.153482,0.1486323,1.94,0,0.9799333,279.5,18.14,88.3,18.09,17.24,2.667,0.102,0,19.76,13.59,2.888,102.1221,7.938,7.938,7.936,100
"2014-07-23 01:44:00",966806,2.848,351.0535,6.443119,0.3165481,3.29,0,1.33,350.2668,7.745194,0.1616168,1.64,0,0.9145333,268.8,18.12,88.1,18.08,17.24,3.075,0.137,0,19.76,13.59,3.388,102.1219,7.938,7.939,7.936,100
"2014-07-23 01:45:00",966807,2.99,352.1286,3.823488,0.3241399,3.99,0,1.638667,351.2777,8.09039,0.2668049,2.05,0,0.9791333,298,18.14,88.1,18.1,17.26,3.325,0.255,0,19.74,13.58,3.763,102.1216,7.937,7.939,7.936,100
"2014-07-23 01:46:00",966808,2.641333,2.184853,6.425282,0.2628274,3.01,0,1.667333,351.8025,9.244049,0.3349919,2.22,0,0.9761333,287.5,18.15,88.2,18.13,17.27,3.063,0.157,0,19.73,13.58,3.45,102.1201,7.938,7.938,7.937,100
"2014-07-23 01:47:00",966809,2.102,357.243,6.722156,0.1305476,2.38,0,1.218,346.3507,8.53112,0.1395803,1.47,0,0.9746,302.1,18.18,88.3,18.19,17.29,2.758,0.243,0,19.73,13.59,3.325,102.1178,7.938,7.939,7.937,100
"2014-07-23 01:48:00",966810,2.089333,2.942608,6.829905,0.2000489,2.5,0,0.896,359.2505,10.50642,0.1361764,1.11,0,0.8446667,253.7,18.21,88.2,18.21,17.31,2.892,0.547,0,19.73,13.58,3.888,102.1152,7.939,7.939,7.937,100
"2014-07-23 01:49:00",966811,2.062,11.17909,7.778089,0.2751533,2.71,0,0.898,352.6924,7.884592,0.1426978,1.24,0,0.9021333,291.3,18.24,88.1,18.23,17.32,1.942,0.219,0,19.71,13.59,2.325,102.1102,7.938,7.939,7.937,100
"2014-07-23 01:50:00",966812,1.256,0.5455536,8.66057,0.1845643,1.49,0,0.6960001,338.4297,30.64403,0.206714,1,0,0.9718667,311.1,18.3,88,18.31,17.35,1.833,0.225,0,19.7,13.58,2.263,102.1062,7.938,7.939,7.937,100
"2014-07-23 01:51:00",966813,1.536,3.397788,11.37607,0.2072293,1.97,0,0.552,345.4734,21.62508,0.1001466,0.78,0,0.5840666,193.6,18.34,87.7,18.33,17.37,1.25,0.086,0,19.7,13.59,1.388,102.1047,7.937,7.939,7.937,100